Wind_Speed
25 26 30 27 27 29 30 29 27 27 25 22 18 15 13 13 15 14 12 13 12 12 11 11 11 11 9 8 7 10 14 10 10 11 9 7 9 9 10 8 8 11 11
30 32 33 32 32 31 28 27 26 25 23 20 16 15 14 14 14 13 12 12 11 11 11 11 11 11 9 7 6 9 13 10 8 11 9 10 14 11 8 9 8 10 9
33 32 33 32 31 28 26 25 24 23 22 18 16 14 15 14 14 12 13 12 12 11 11 12 12 11 9 8 9 9 11 13 6 8 9 13 14 14 11 12 12 14 10
30 31 31 29 26 25 24 24 23 22 20 17 15 14 14 13 13 14 13 11 12 12 12 13 13 12 10 9 8 8 10 11 10 5 10 12 15 13 12 14 13 13 13
28 27 28 26 25 23 22 23 21 19 18 16 15 13 12 12 13 13 11 12 13 12 12 14 14 13 13 11 10 9 8 6 9 9 11 13 14 11 13 11 12 11 10
27 26 24 23 22 21 21 21 19 18 16 15 14 12 11 11 11 11 11 11 12 12 12 13 13 13 13 12 12 9 6 5 6 12 11 14 12 10 10 10 10 9 7
25 23 21 21 20 20 20 19 18 17 15 14 12 11 10 9 10 9 9 11 12 12 12 12 12 12 13 12 12 13 12 12 21 9 10 13 10 8 9 7 7 6 6
19 20 19 20 20 20 19 18 17 16 15 13 11 9 8 9 9 9 8 8 10 11 10 8 8 8 9 9 10 13 11 13 14 6 5 9 8 8 7 5 6 7 8
19 17 18 19 21 21 19 18 16 15 14 12 10 8 6 7 6 6 6 6 8 9 9 7 6 6 7 8 9 10 12 13 13 11 3 4 6 8 6 5 5 5 5
19 18 18 20 20 20 19 17 16 15 13 11 9 7 6 4 3 3 5 6 5 7 7 7 6 6 7 9 8 10 8 7 8 7 6 2 4 6 6 3 3 3 4
21 20 19 19 19 18 18 16 16 14 13 11 8 5 4 5 4 4 4 4 2 4 5 5 6 5 6 9 8 9 9 8 6 2 1 3 5 7 5 4 2 3 2
22 22 20 19 19 18 17 16 14 14 12 9 7 4 3 3 2 3 4 1 3 5 2 4 3 5 8 6 7 9 8 7 7 2 2 4 5 6 5 5 4 4 1
20 20 20 20 19 17 17 15 14 12 10 8 6 5 3 2 7 2 4 3 3 1 2 1 5 8 7 7 10 7 12 11 6 2 1 2 4 6 6 5 2 7 2
19 20 19 19 18 17 17 16 14 12 10 8 4 4 3 3 3 3 3 1 5 5 4 4 6 9 10 7 12 5 7 10 7 4 3 3 5 6 6 5 1 3 5
20 19 20 18 18 16 16 14 12 11 11 10 7 6 4 2 1 1 3 3 4 6 6 8 10 12 16 13 16 16 9 5 5 5 1 2 4 7 7 7 5 4 8
18 21 20 17 15 15 15 12 10 9 11 10 10 7 5 3 3 4 6 6 5 7 8 10 10 10 13 13 17 18 11 6 3 3 1 3 3 6 8 8 7 9 9
18 19 17 16 16 14 12 9 7 9 6 8 6 6 6 5 5 7 7 5 5 6 8 11 9 10 8 11 17 15 8 7 5 1 3 4 4 6 8 8 8 8 9
19 18 17 16 13 12 11 9 8 6 6 4 4 5 6 6 8 8 6 7 8 11 8 10 9 8 7 10 12 10 5 6 5 4 3 4 5 6 8 8 8 9 9
16 16 15 12 11 12 11 10 9 8 8 8 7 7 6 4 8 8 8 8 9 10 10 9 7 9 10 11 11 4 2 5 6 2 1 4 5 6 6 8 9 9 10
18 16 13 14 15 13 12 12 12 12 10 9 8 7 9 6 7 9 10 9 10 10 8 7 10 12 12 12 10 4 1 1 5 4 4 4 3 2 4 4 8 8 10
20 19 18 17 16 15 12 11 10 9 9 9 7 9 9 10 10 12 12 8 7 6 7 10 13 14 14 13 10 6 3 2 4 2 6 5 2 1 3 5 6 6 8
19 19 20 19 18 15 15 14 12 11 11 13 12 14 12 13 13 13 9 6 3 7 7 9 11 12 13 14 13 8 6 7 6 3 5 5 5 5 4 4 4 5 7
24 22 19 17 18 17 17 17 17 17 15 11 10 11 11 13 11 7 2 4 6 6 6 8 12 14 16 14 12 11 8 6 6 6 6 7 4 8 6 5 5 5 7
28 24 22 21 19 18 18 18 17 16 15 12 10 8 6 12 7 6 7 6 7 6 7 10 13 15 17 16 12 10 10 8 10 8 8 10 10 9 3 8 9 8 9
29 29 25 24 23 22 21 19 18 17 15 15 13 11 10 10 10 10 9 8 7 6 7 9 12 20 22 19 8 10 9 8 10 11 12 12 11 8 8 9 8 11 9
19 21 23 27 28 26 25 22 20 17 16 16 14 12 11 12 14 12 11 9 5 4 5 7 6 15 24 18 11 12 13 13 11 11 11 11 13 14 12 6 8 7 11
Wind_Direction
137 136 134 141 141 138 133 133 132 131 132 129 122 114 98 94 101 104 98 87 80 73 67 63 64 69 71 88 82 55 44 55 61 53 48 67 104 110 117 123 149 169 173
132 133 132 131 132 134 136 135 133 135 133 127 122 107 97 95 95 91 80 73 70 69 69 69 71 72 66 76 79 72 52 61 66 54 70 89 94 107 119 127 142 141 130
135 131 131 131 133 133 137 137 138 138 132 128 120 106 97 91 85 77 70 63 66 66 66 70 72 72 68 76 73 60 44 54 84 78 90 96 97 101 112 115 120 113 117
133 129 132 131 131 134 139 140 141 138 135 131 121 103 97 87 77 68 64 65 65 69 66 69 70 68 63 56 65 57 62 57 82 89 88 93 96 96 105 113 102 105 120
138 133 134 134 135 137 140 142 142 142 141 132 120 105 93 84 73 66 65 68 72 72 73 74 72 69 66 61 58 52 63 75 69 81 84 90 93 103 111 107 107 110 113
139 137 136 137 138 138 140 143 147 148 140 133 122 104 93 82 70 63 68 73 73 78 72 72 70 68 70 67 59 51 45 42 99 72 86 81 93 98 111 108 108 117 123
141 142 142 142 143 145 145 148 151 145 141 133 124 110 99 85 70 73 81 83 74 73 73 73 73 72 69 63 58 49 49 22 23 100 46 81 94 108 113 117 114 117 130
148 146 151 150 151 150 150 150 149 145 143 139 133 123 111 92 77 87 89 91 78 72 73 72 74 73 68 52 38 46 38 39 51 55 27 64 87 107 118 121 127 123 137
151 154 155 155 155 153 151 151 149 147 149 146 137 133 113 96 100 105 98 86 81 75 70 65 59 49 32 22 15 23 23 31 36 56 89 55 71 84 103 125 134 129 132
157 159 160 158 157 154 154 153 151 151 151 147 146 138 119 113 112 121 98 79 68 78 72 55 31 19 24 12 1 358 4 20 47 62 114 78 94 71 70 90 143 134 131
166 164 162 158 160 161 159 157 156 156 155 157 154 143 135 93 72 47 46 76 39 52 66 38 19 8 13 356 351 337 335 356 26 44 173 152 107 99 112 88 105 127 151
171 167 163 165 168 166 163 162 162 166 162 164 159 150 114 100 74 76 39 268 42 33 124 15 40 331 320 324 324 331 322 351 354 2 163 190 145 119 92 113 105 96 171
171 169 166 170 171 171 170 169 170 175 169 175 174 173 156 125 81 309 78 46 348 324 13 28 333 319 316 333 339 314 311 338 357 17 193 222 183 147 130 120 85 152 157
176 169 172 174 173 176 180 177 179 180 182 185 191 189 182 155 106 66 85 131 302 320 353 340 342 340 339 23 27 38 333 327 350 21 132 208 183 173 153 148 136 147 162
178 173 178 179 177 185 188 185 186 183 196 208 205 224 231 157 88 273 268 309 310 319 329 354 341 343 357 7 0 2 10 359 355 17 105 185 191 170 174 165 162 175 175
178 177 179 171 178 181 196 196 196 197 213 219 216 226 234 226 228 225 242 288 321 330 346 349 348 351 336 342 343 341 353 359 2 42 152 172 191 173 183 184 178 168 173
179 180 179 172 179 178 184 194 199 209 200 210 212 237 243 238 239 250 274 293 320 318 319 339 338 338 330 327 330 329 344 350 344 88 139 168 201 190 191 192 191 191 195
178 179 184 183 179 182 185 197 210 226 234 235 229 256 258 260 250 255 267 278 296 308 305 327 328 324 315 308 313 325 343 354 360 36 134 180 213 205 198 210 201 206 207
184 180 180 188 190 193 196 207 221 236 253 271 280 275 272 215 250 261 271 281 292 311 324 318 323 341 344 335 331 323 328 33 34 16 161 125 197 231 217 215 215 220 225
186 189 190 194 205 209 209 214 224 239 242 258 268 270 266 215 250 261 276 287 300 321 320 11 22 13 359 345 338 314 240 78 70 17 6 105 154 171 226 246 227 226 229
201 198 197 202 206 218 229 240 247 259 259 259 259 242 240 241 244 261 280 290 310 10 32 26 23 17 5 3 348 344 264 209 117 21 8 8 329 194 209 223 221 223 229
216 211 214 211 216 225 231 238 241 247 249 250 255 258 247 248 252 255 269 268 59 64 41 29 29 21 14 14 4 357 337 322 322 328 15 14 332 317 277 241 217 234 247
225 220 223 220 222 227 231 234 236 239 245 258 260 268 252 241 241 250 173 112 89 75 58 37 32 22 12 5 9 6 359 333 304 317 352 336 355 318 302 286 271 255 245
226 221 223 226 226 230 234 234 240 249 249 250 249 255 248 204 211 196 145 125 118 93 58 42 37 29 20 6 349 1 6 346 329 318 309 310 318 333 234 312 288 272 256
235 229 226 231 228 231 232 233 241 248 252 246 245 234 242 212 187 176 146 144 120 96 54 35 41 29 14 3 358 353 352 346 337 328 321 314 311 314 295 304 279 285 281
250 232 226 230 234 235 240 234 237 243 245 243 247 238 232 202 187 169 156 153 139 113 60 30 20 9 18 31 22 11 352 342 333 324 317 312 308 308 312 312 294 293 287
Height
3173 3175 3177 3180 3183 3188 3191 3193 3196 3198 3200 3202 3204 3206 3206 3206 3207 3207 3207 3207 3206 3206 3205 3205 3203 3202 3201 3200 3200 3199 3199 3198 3197 3196 3195 3194 3193 3195 3195 3195 3196 3197 3198
3176 3179 3181 3184 3188 3191 3194 3196 3199 3201 3202 3204 3207 3208 3208 3208 3208 3209 3208 3208 3208 3207 3207 3206 3205 3204 3203 3202 3201 3201 3200 3199 3199 3198 3198 3197 3196 3196 3197 3197 3197 3198 3199
3179 3181 3184 3187 3191 3194 3197 3199 3201 3203 3204 3207 3208 3209 3209 3209 3210 3210 3209 3209 3209 3209 3209 3208 3207 3206 3205 3204 3203 3204 3202 3201 3200 3200 3199 3198 3198 3198 3198 3198 3199 3199 3201
3182 3184 3187 3191 3194 3196 3198 3200 3203 3205 3207 3208 3210 3210 3211 3212 3212 3211 3211 3211 3211 3211 3210 3209 3208 3207 3206 3205 3205 3205 3204 3203 3203 3202 3200 3200 3199 3200 3200 3200 3199 3201 3202
3185 3187 3190 3193 3196 3198 3200 3202 3204 3207 3208 3210 3211 3212 3213 3213 3212 3212 3213 3213 3212 3212 3211 3210 3210 3209 3208 3207 3207 3206 3206 3205 3205 3204 3203 3201 3200 3201 3201 3202 3202 3203 3204
3187 3190 3193 3195 3198 3200 3202 3204 3206 3209 3210 3212 3214 3214 3215 3214 3214 3214 3214 3214 3214 3213 3212 3212 3211 3211 3211 3209 3208 3208 3207 3207 3205 3207 3204 3203 3203 3204 3204 3204 3204 3205 3206
3189 3192 3195 3197 3200 3202 3204 3206 3208 3210 3211 3214 3215 3216 3216 3216 3216 3215 3215 3215 3215 3215 3214 3213 3213 3213 3212 3210 3209 3209 3210 3205 3201 3205 3208 3204 3205 3205 3206 3206 3206 3206 3207
3192 3193 3196 3199 3201 3204 3205 3208 3210 3211 3213 3215 3216 3216 3217 3217 3217 3217 3217 3215 3215 3215 3215 3215 3214 3214 3213 3213 3211 3211 3208 3208 3209 3207 3207 3206 3207 3206 3207 3208 3208 3208 3208
3193 3195 3197 3200 3203 3205 3207 3209 3211 3212 3213 3216 3217 3218 3218 3218 3218 3218 3218 3217 3216 3216 3216 3216 3216 3215 3215 3213 3212 3212 3210 3208 3207 3206 3207 3208 3208 3207 3208 3208 3209 3209 3210
3193 3196 3198 3201 3204 3206 3207 3210 3212 3213 3215 3217 3218 3218 3218 3218 3219 3219 3219 3219 3218 3217 3217 3217 3217 3216 3215 3214 3213 3212 3211 3210 3209 3208 3209 3209 3208 3207 3209 3209 3210 3210 3210
3192 3196 3199 3202 3205 3207 3209 3211 3213 3214 3216 3218 3218 3218 3218 3219 3220 3221 3221 3219 3218 3218 3218 3218 3217 3217 3215 3214 3213 3211 3210 3210 3210 3209 3208 3208 3208 3207 3207 3209 3210 3211 3211
3193 3195 3199 3202 3205 3207 3210 3212 3214 3215 3217 3218 3218 3219 3220 3220 3220 3220 3220 3219 3219 3219 3217 3216 3216 3216 3215 3213 3212 3209 3208 3207 3207 3207 3207 3207 3207 3207 3208 3209 3210 3210 3212
3194 3197 3199 3202 3205 3208 3210 3212 3213 3215 3217 3217 3218 3218 3219 3220 3220 3220 3219 3219 3219 3219 3217 3216 3215 3215 3214 3212 3210 3208 3205 3204 3206 3206 3205 3205 3206 3208 3208 3208 3207 3209 3211
3194 3197 3200 3202 3205 3208 3209 3211 3212 3214 3215 3216 3217 3217 3219 3220 3220 3219 3219 3219 3219 3218 3217 3215 3214 3214 3212 3210 3209 3208 3205 3202 3202 3203 3204 3203 3205 3207 3207 3208 3208 3209 3209
3195 3197 3200 3203 3205 3207 3209 3211 3212 3213 3214 3214 3216 3216 3217 3219 3219 3219 3219 3219 3219 3218 3217 3215 3214 3212 3210 3208 3207 3206 3205 3202 3201 3201 3201 3201 3203 3205 3207 3207 3207 3209 3210
3194 3197 3199 3202 3204 3206 3209 3210 3211 3212 3213 3215 3215 3216 3216 3217 3218 3219 3218 3218 3218 3217 3215 3214 3213 3211 3210 3208 3206 3204 3203 3202 3201 3201 3201 3201 3202 3204 3206 3207 3208 3208 3209
3194 3197 3199 3201 3204 3205 3207 3209 3209 3211 3213 3214 3214 3215 3215 3216 3218 3218 3218 3217 3216 3215 3215 3214 3213 3211 3209 3207 3205 3203 3201 3200 3200 3200 3200 3200 3201 3203 3204 3206 3207 3208 3209
3193 3195 3197 3199 3202 3203 3205 3207 3208 3209 3210 3211 3213 3214 3215 3215 3216 3217 3218 3217 3216 3215 3215 3214 3211 3210 3208 3207 3205 3202 3201 3200 3199 3199 3199 3199 3199 3201 3202 3203 3206 3207 3207
3191 3193 3195 3197 3199 3202 3204 3205 3206 3208 3208 3208 3210 3213 3214 3215 3215 3215 3215 3215 3214 3214 3213 3212 3211 3209 3207 3204 3203 3202 3201 3200 3199 3199 3198 3199 3199 3199 3201 3202 3204 3204 3206
3189 3190 3193 3196 3199 3201 3202 3204 3204 3205 3207 3208 3210 3211 3211 3213 3213 3212 3213 3213 3212 3212 3212 3211 3209 3208 3206 3204 3203 3202 3201 3200 3200 3199 3199 3199 3199 3199 3200 3200 3201 3202 3204
3185 3187 3191 3194 3196 3198 3200 3202 3203 3204 3205 3207 3208 3209 3209 3210 3211 3211 3211 3212 3212 3211 3211 3210 3209 3208 3207 3205 3203 3203 3201 3200 3200 3199 3199 3198 3199 3199 3199 3199 3200 3200 3201
3181 3184 3188 3191 3193 3196 3198 3200 3201 3202 3204 3204 3205 3206 3207 3207 3208 3209 3209 3210 3211 3211 3212 3211 3210 3209 3208 3206 3205 3202 3201 3200 3199 3198 3198 3198 3198 3199 3198 3198 3198 3198 3199
3176 3180 3184 3188 3191 3193 3195 3197 3198 3199 3200 3202 3203 3204 3203 3205 3206 3207 3208 3208 3210 3211 3211 3211 3210 3210 3208 3207 3205 3204 3202 3201 3199 3198 3198 3197 3197 3197 3196 3196 3196 3196 3196
3172 3177 3180 3183 3187 3189 3192 3193 3195 3196 3197 3199 3200 3199 3200 3202 3203 3205 3206 3209 3210 3211 3211 3211 3209 3208 3207 3205 3204 3203 3201 3201 3199 3198 3197 3198 3198 3196 3196 3195 3193 3194 3194
3169 3172 3176 3178 3181 3184 3187 3190 3192 3193 3194 3195 3195 3197 3198 3200 3202 3204 3206 3208 3209 3210 3210 3209 3209 3208 3206 3202 3201 3201 3200 3199 3198 3197 3196 3196 3195 3195 3195 3194 3193 3191 3192
3165 3168 3171 3174 3177 3180 3182 3185 3186 3189 3190 3191 3192 3194 3196 3198 3200 3203 3204 3206 3207 3209 3209 3209 3208 3207 3205 3202 3201 3201 3200 3199 3198 3197 3195 3194 3193 3192 3191 3192 3190 3190 3189